BAW4AR EHAM-EGLL

Flight info

Callsign BAW4AR
Flight time N/A
Altitude 24000
Route IDRID L980 LOGAN
Aircraft A320/M-SDE3FGHIRWY/LB1

Departure

Time 2026-04-27 13:32
Airport Amsterdam Airport Schiphol (EHAM)

Arrival

Time N/A
Airport London Heathrow Airport (EGLL)
Time Latitude Longitude Altitude Speed Heading
2026-04-27 12:41 52.30720 4.77028 3 ft 0 kts
2026-04-27 13:14 52.30704 4.77026 3 ft 4 kts
2026-04-27 13:14 52.30678 4.77017 5 ft 4 kts 23°
2026-04-27 13:15 52.30658 4.76995 6 ft 4 kts 71°
2026-04-27 13:15 52.30656 4.76975 7 ft 1 kts 93°
2026-04-27 13:15 52.30656 4.76973 7 ft 1 kts 93°
2026-04-27 13:19 52.30655 4.77016 5 ft 7 kts 93°
2026-04-27 13:19 52.30651 4.77136 5 ft 14 kts 93°
2026-04-27 13:19 52.30644 4.77321 8 ft 17 kts 93°
2026-04-27 13:20 52.30648 4.77508 12 ft 16 kts 74°
2026-04-27 13:20 52.30741 4.77595 13 ft 17 kts
2026-04-27 13:20 52.30871 4.77606 13 ft 20 kts
2026-04-27 13:20 52.31017 4.77622 13 ft 22 kts
2026-04-27 13:21 52.31172 4.77635 13 ft 24 kts
2026-04-27 13:21 52.31341 4.77650 15 ft 23 kts
2026-04-27 13:21 52.31489 4.77596 12 ft 24 kts 323°
2026-04-27 13:21 52.31575 4.77377 11 ft 23 kts 276°
2026-04-27 13:22 52.31572 4.77096 10 ft 26 kts 268°
2026-04-27 13:22 52.31560 4.76801 11 ft 27 kts 266°
2026-04-27 13:22 52.31551 4.76495 17 ft 26 kts 267°
2026-04-27 13:22 52.31541 4.76187 17 ft 28 kts 267°
2026-04-27 13:23 52.31532 4.75889 17 ft 27 kts 266°
2026-04-27 13:23 52.31518 4.75554 12 ft 31 kts 266°
2026-04-27 13:23 52.31506 4.75203 9 ft 31 kts 267°
2026-04-27 13:23 52.31495 4.74900 14 ft 25 kts 266°
2026-04-27 13:24 52.31487 4.74607 17 ft 26 kts 267°
2026-04-27 13:24 52.31486 4.74350 14 ft 16 kts 289°
2026-04-27 13:24 52.31588 4.74299 15 ft 17 kts
2026-04-27 13:24 52.31713 4.74311 15 ft 20 kts
2026-04-27 13:25 52.31878 4.74328 8 ft 26 kts
2026-04-27 13:25 52.32022 4.74281 9 ft 19 kts 302°
2026-04-27 13:25 52.32039 4.74076 13 ft 19 kts 274°
2026-04-27 13:25 52.32045 4.73862 18 ft 19 kts 272°
2026-04-27 13:26 52.32054 4.73639 18 ft 22 kts 274°
2026-04-27 13:26 52.32078 4.73397 13 ft 23 kts 296°
2026-04-27 13:26 52.32200 4.73193 5 ft 28 kts 320°
2026-04-27 13:26 52.32362 4.72971 -2 ft 32 kts 319°
2026-04-27 13:27 52.32533 4.72732 -3 ft 26 kts 317°
2026-04-27 13:27 52.32662 4.72543 -1 ft 24 kts 316°
2026-04-27 13:27 52.32723 4.72439 -1 ft 9 kts 313°
2026-04-27 13:27 52.32788 4.72320 1 ft 17 kts 312°
2026-04-27 13:28 52.32895 4.72123 -2 ft 30 kts 312°
2026-04-27 13:28 52.33042 4.71851 1 ft 32 kts 310°
2026-04-27 13:28 52.33146 4.71624 7 ft 21 kts 290°
2026-04-27 13:28 52.33136 4.71477 11 ft 10 kts 262°
2026-04-27 13:29 52.33160 4.71376 13 ft 9 kts 309°
2026-04-27 13:29 52.33203 4.71296 15 ft 10 kts 312°
2026-04-27 13:29 52.33253 4.71204 14 ft 13 kts 311°
2026-04-27 13:29 52.33304 4.71105 14 ft 0 kts 310°
2026-04-27 13:30 52.33315 4.71085 15 ft 7 kts 311°
2026-04-27 13:31 52.33385 4.70982 16 ft 22 kts 327°
2026-04-27 13:31 52.33607 4.70952 21 ft 52 kts
2026-04-27 13:31 52.34191 4.71009 13 ft 113 kts
2026-04-27 13:31 52.35135 4.71094 18 ft 157 kts
2026-04-27 13:32 52.36294 4.71199 410 ft 168 kts
2026-04-27 13:32 52.37460 4.71265 1162 ft 167 kts
2026-04-27 13:32 52.38660 4.71377 1591 ft 182 kts
2026-04-27 13:32 52.40002 4.71512 1859 ft 205 kts
2026-04-27 13:33 52.41513 4.71663 2234 ft 230 kts
2026-04-27 13:33 52.43153 4.71190 2764 ft 250 kts 336°
2026-04-27 13:33 52.44571 4.69497 3600 ft 257 kts 316°
2026-04-27 13:33 52.45737 4.67256 4507 ft 261 kts 302°
2026-04-27 13:34 52.46456 4.64546 5410 ft 266 kts 285°
2026-04-27 13:34 52.46669 4.61480 6286 ft 271 kts 272°
2026-04-27 13:34 52.46668 4.58377 7137 ft 274 kts 268°
2026-04-27 13:34 52.46265 4.55296 7965 ft 279 kts 249°
2026-04-27 13:35 52.45281 4.52543 8818 ft 283 kts 231°
2026-04-27 13:35 52.43829 4.50434 9687 ft 285 kts 215°
2026-04-27 13:35 52.42278 4.48371 10519 ft 284 kts 229°
2026-04-27 13:35 52.41133 4.45684 10833 ft 303 kts 243°
2026-04-27 13:36 52.40141 4.42484 10993 ft 325 kts 244°
2026-04-27 13:36 52.39077 4.39093 11240 ft 343 kts 243°
2026-04-27 13:36 52.37960 4.35587 11835 ft 349 kts 243°
2026-04-27 13:36 52.36822 4.32064 12508 ft 352 kts 243°
2026-04-27 13:37 52.35668 4.28528 13179 ft 355 kts 243°
2026-04-27 13:37 52.34491 4.24955 13863 ft 358 kts 243°
2026-04-27 13:37 52.33304 4.21355 14499 ft 361 kts 243°
2026-04-27 13:37 52.32115 4.17741 15097 ft 363 kts 243°
2026-04-27 13:38 52.30764 4.14234 15685 ft 367 kts 234°
2026-04-27 13:38 52.29190 4.10935 16271 ft 369 kts 233°
2026-04-27 13:38 52.27603 4.07620 16864 ft 372 kts 233°
2026-04-27 13:38 52.26005 4.04282 17469 ft 374 kts 234°
2026-04-27 13:39 52.24399 4.00921 18091 ft 377 kts 234°
2026-04-27 13:39 52.22777 3.97528 18698 ft 380 kts 234°
2026-04-27 13:39 52.21152 3.94133 19224 ft 382 kts 234°
2026-04-27 13:39 52.19508 3.90703 19766 ft 385 kts 234°
2026-04-27 13:40 52.17844 3.87236 20314 ft 388 kts 234°
2026-04-27 13:40 52.16173 3.83765 20853 ft 391 kts 234°
2026-04-27 13:40 52.14488 3.80273 21359 ft 393 kts 234°
2026-04-27 13:40 52.12792 3.76765 21841 ft 396 kts 234°
2026-04-27 13:41 52.11094 3.73248 22314 ft 398 kts 234°
2026-04-27 13:41 52.09375 3.69698 22773 ft 400 kts 234°
2026-04-27 13:41 52.07646 3.66130 23228 ft 403 kts 234°
2026-04-27 13:41 52.05914 3.62550 23662 ft 405 kts 234°
2026-04-27 13:42 52.04166 3.58943 24056 ft 407 kts 234°
2026-04-27 13:42 52.02400 3.55312 24247 ft 408 kts 234°
2026-04-27 13:42 52.00621 3.51667 24306 ft 417 kts 234°
2026-04-27 13:42 51.98811 3.47941 24284 ft 422 kts 235°
2026-04-27 13:43 51.97041 3.44141 24303 ft 423 kts 236°
2026-04-27 13:43 51.95304 3.40289 24303 ft 423 kts 237°
2026-04-27 13:43 51.93582 3.36415 24295 ft 424 kts 237°
2026-04-27 13:43 51.91857 3.32529 24296 ft 425 kts 237°
2026-04-27 13:44 51.90124 3.28655 24310 ft 425 kts 236°
2026-04-27 13:44 51.88384 3.24787 24310 ft 425 kts 236°
2026-04-27 13:44 51.86727 3.20846 24309 ft 423 kts 242°
2026-04-27 13:44 51.85470 3.16592 24304 ft 420 kts 251°
2026-04-27 13:45 51.84654 3.12040 24298 ft 419 kts 260°
2026-04-27 13:45 51.84377 3.08960 24296 ft 418 kts 265°
2026-04-27 13:45 51.83984 3.02718 24293 ft 418 kts 265°
2026-04-27 13:45 51.83786 2.99623 24291 ft 418 kts 265°
2026-04-27 13:46 51.83483 2.94972 24291 ft 418 kts 264°
2026-04-27 13:46 51.83174 2.90285 24279 ft 418 kts 265°
2026-04-27 13:46 51.82865 2.85632 24280 ft 418 kts 265°
2026-04-27 13:46 51.82551 2.80878 24297 ft 429 kts 265°
2026-04-27 13:47 51.82226 2.76033 24294 ft 437 kts 264°
2026-04-27 13:47 51.81890 2.71099 24298 ft 445 kts 264°
2026-04-27 13:47 51.81548 2.66099 24299 ft 450 kts 264°
2026-04-27 13:47 51.81202 2.61078 24299 ft 453 kts 264°
2026-04-27 13:48 51.80849 2.55996 24299 ft 453 kts 264°
2026-04-27 13:48 51.80498 2.50931 24299 ft 453 kts 264°
2026-04-27 13:48 51.80143 2.45875 24299 ft 453 kts 264°
2026-04-27 13:48 51.79790 2.40866 24293 ft 454 kts 264°
2026-04-27 13:49 51.79431 2.35800 24294 ft 454 kts 264°
2026-04-27 13:49 51.79070 2.30753 24297 ft 454 kts 264°
2026-04-27 13:49 51.78701 2.25684 24277 ft 454 kts 264°
2026-04-27 13:49 51.78333 2.20619 24276 ft 454 kts 264°
2026-04-27 13:50 51.78000 2.15547 24272 ft 454 kts 265°
2026-04-27 13:50 51.77703 2.10470 24277 ft 454 kts 265°
2026-04-27 13:50 51.77424 2.05393 24277 ft 454 kts 266°
2026-04-27 13:50 51.77147 2.00299 24277 ft 454 kts 265°
2026-04-27 13:51 51.76863 1.95230 24280 ft 454 kts 265°
2026-04-27 13:51 51.76568 1.90159 24269 ft 454 kts 265°
2026-04-27 13:51 51.76263 1.85075 24270 ft 455 kts 265°
2026-04-27 13:51 51.75952 1.79994 24270 ft 455 kts 265°
2026-04-27 13:52 51.75634 1.74905 24268 ft 455 kts 265°
2026-04-27 13:52 51.75311 1.69840 24273 ft 456 kts 265°
2026-04-27 13:52 51.74987 1.64792 23821 ft 450 kts 265°
2026-04-27 13:52 51.74666 1.59799 22749 ft 445 kts 265°
2026-04-27 13:53 51.74040 1.49954 20805 ft 435 kts 265°
2026-04-27 13:53 51.73736 1.45202 19920 ft 431 kts 265°
2026-04-27 13:53 51.73429 1.40409 19049 ft 428 kts 265°
2026-04-27 13:54 51.73120 1.35657 18160 ft 424 kts 264°
2026-04-27 13:54 51.72809 1.30936 17257 ft 419 kts 264°
2026-04-27 13:54 51.72502 1.26297 16401 ft 414 kts 264°
2026-04-27 13:54 51.72197 1.21712 15665 ft 409 kts 264°
2026-04-27 13:55 51.71892 1.17165 15389 ft 409 kts 264°
2026-04-27 13:55 51.71585 1.12601 15258 ft 409 kts 264°
2026-04-27 13:55 51.71279 1.08031 15293 ft 409 kts 264°
2026-04-27 13:55 51.70971 1.03484 15290 ft 409 kts 264°
2026-04-27 13:56 51.70657 0.98907 15293 ft 409 kts 264°
2026-04-27 13:56 51.70341 0.94367 15277 ft 410 kts 264°
2026-04-27 13:56 51.70021 0.89786 15246 ft 409 kts 264°
2026-04-27 13:56 51.69704 0.85256 14565 ft 404 kts 264°
2026-04-27 13:57 51.69390 0.80782 13816 ft 401 kts 264°
2026-04-27 13:57 51.69080 0.76380 12819 ft 391 kts 264°
2026-04-27 13:57 51.68773 0.72046 11664 ft 383 kts 264°
2026-04-27 13:57 51.68481 0.67954 11355 ft 352 kts 264°
2026-04-27 13:58 51.68214 0.64252 11195 ft 323 kts 264°
2026-04-27 13:58 51.67962 0.60764 11068 ft 297 kts 264°
2026-04-27 13:58 51.67733 0.57582 10756 ft 283 kts 264°
2026-04-27 13:58 51.67509 0.54456 10230 ft 279 kts 265°
2026-04-27 13:59 51.67286 0.51335 9851 ft 279 kts 265°
2026-04-27 13:59 51.67062 0.48235 9499 ft 278 kts 265°
2026-04-27 13:59 51.66841 0.45159 9166 ft 276 kts 265°
2026-04-27 13:59 51.66617 0.42090 8815 ft 275 kts 265°
2026-04-27 14:00 51.66393 0.39040 8470 ft 274 kts 265°
2026-04-27 14:00 51.66169 0.35992 8130 ft 273 kts 265°
2026-04-27 14:00 51.65941 0.32941 7787 ft 273 kts 265°
2026-04-27 14:00 51.65715 0.29920 7464 ft 272 kts 265°
2026-04-27 14:01 51.65489 0.26909 7269 ft 270 kts 265°
2026-04-27 14:01 51.65261 0.23929 7265 ft 261 kts 265°
2026-04-27 14:01 51.65045 0.21107 7266 ft 248 kts 265°
2026-04-27 14:01 51.64839 0.18398 7269 ft 241 kts 265°
2026-04-27 14:02 51.64637 0.15712 7271 ft 241 kts 265°
2026-04-27 14:02 51.64457 0.13042 7271 ft 241 kts 267°
2026-04-27 14:02 51.64309 0.10360 7272 ft 241 kts 267°
2026-04-27 14:02 51.64168 0.07664 7272 ft 241 kts 267°
2026-04-27 14:03 51.64027 0.04974 7272 ft 241 kts 267°
2026-04-27 14:03 51.63884 0.02289 7272 ft 241 kts 267°
2026-04-27 14:03 51.63738 -0.00395 7289 ft 241 kts 267°
2026-04-27 14:03 51.63589 -0.03082 7284 ft 241 kts 268°
2026-04-27 14:04 51.63442 -0.05733 7291 ft 241 kts 267°
2026-04-27 14:04 51.63291 -0.08428 7293 ft 241 kts 268°
2026-04-27 14:04 51.63140 -0.11107 7294 ft 241 kts 267°
2026-04-27 14:04 51.62986 -0.13829 7299 ft 241 kts 267°
2026-04-27 14:05 51.62835 -0.16482 7299 ft 241 kts 267°
2026-04-27 14:05 51.62680 -0.19174 7300 ft 241 kts 267°
2026-04-27 14:05 51.62527 -0.21858 7303 ft 241 kts 267°
2026-04-27 14:05 51.62373 -0.24547 7300 ft 241 kts 267°
2026-04-27 14:06 51.62217 -0.27233 7300 ft 241 kts 267°